Weather History for Ukiah, CA

Change the Weather History Date:

Wednesday, March 6, 2013

  Actual Average Record
Temperature  
Mean Temperature 45 °F 51 °F  
Max Temperature 53 °F 63 °F 83 °F (1953)
Min Temperature 36 °F 40 °F 23 °F (1918)
Degree Days  
Heating Degree Days 20 14  
Month to date heating degree days 79 84  
Since 1 July heating degree days 2209 2317  
Cooling Degree Days 0 0  
Month to date cooling degree days 0 0  
Year to date cooling degree days 0 0  
Moisture  
Dew Point 38 °F    
Average Humidity 73    
Maximum Humidity 92    
Minimum Humidity 54    
Precipitation  
Precipitation 0.27 in 0.20 in 1.70 in (1911)
Month to date precipitation 1.36 1.37  
Year to date precipitation 3.20 14.92  
Since 1 July precipitation 25.90 28.89  
Snow  
Snow 0.00 in - - ()
Month to date snowfall 0.0  
Since 1 July snowfall 0.0  
Snow Depth 0.00 in    
Sea Level Pressure  
Sea Level Pressure 29.93 in    
Wind  
Wind Speed 6 mph (South)    
Max Wind Speed 23 mph    
Max Gust Speed 40 mph    
Visibility 9 miles    
Events Rain    
T = Trace of Precipitation, MM = Missing Value Source: NWS Daily Summary

Daily Weather History Graph

Daily Weather History Graph

Search for Another Location

Airport:

Trip Planner

Search our weather history database for the weather conditions in past years. The results will help you decide how hot, cold, wet, or windy it might be!

Date:

Astronomy

Mar. 06, 2013 Rise Set
Actual Time 6:37 AM PST 6:11 PM PST
Civil Twilight 6:10 AM PST 6:37 PM PST
Nautical Twilight 5:39 AM PST 7:08 PM PST
Astronomical Twilight 5:08 AM PST 7:39 PM PST
Moon 2:49 AM PST (3/6) 1:00 PM PST (3/6)
Length of Visible Light 12h 26m
Length of Day
11h 33m
Waning Crescent, 29% of the Moon is Illuminated
Mar 6
Waning Crescent
Mar 11
New
Mar 19
First Quarter
Mar 27
Full
Apr 2
Last Quarter

Hourly Weather History & Observations

Time (PST) Temp. Windchill Dew Point Humidity Pressure Visibility Wind Dir Wind Speed Gust Speed Precip Events Conditions
12:07 AM 48.2 °F - 44.6 °F 87% 29.70 in 8.0 mi SSE 8.1 mph 16.1 mph 0.00 in Rain Light Rain
12:56 AM 48.0 °F - 41.0 °F 77% 29.73 in 10.0 mi South 8.1 mph - 0.07 in   Mostly Cloudy
1:56 AM 46.9 °F - 39.9 °F 77% 29.75 in 6.0 mi SSW 8.1 mph 25.3 mph 0.03 in Rain Light Rain
2:56 AM 46.0 °F 42.5 °F 39.9 °F 79% 29.74 in 10.0 mi SSE 6.9 mph 20.7 mph 0.01 in Rain Light Rain
3:56 AM 46.0 °F 40.6 °F 39.9 °F 79% 29.77 in 6.0 mi SSW 11.5 mph 20.7 mph 0.04 in Rain Light Rain
4:40 AM 46.4 °F 41.5 °F 37.4 °F 71% 29.81 in 10.0 mi SSW 10.4 mph 20.7 mph 0.03 in Rain Light Rain
4:56 AM 46.0 °F 40.6 °F 37.9 °F 73% 29.82 in 10.0 mi SW 11.5 mph 24.2 mph 0.03 in Rain Light Rain
5:26 AM 44.6 °F 41.4 °F 37.4 °F 76% 29.84 in 8.0 mi Variable 5.8 mph - 0.02 in Rain Light Rain
6:35 AM 44.6 °F 42.2 °F 37.4 °F 76% 29.88 in 10.0 mi SSE 4.6 mph - 0.01 in Rain Light Rain
6:56 AM 45.0 °F - 37.0 °F 74% 29.90 in 10.0 mi Calm Calm - 0.01 in Rain Light Rain
7:56 AM 43.0 °F 40.3 °F 39.9 °F 89% 29.94 in 9.0 mi ESE 4.6 mph - 0.03 in Rain Light Rain
8:03 AM 44.6 °F 43.1 °F 39.2 °F 81% 29.94 in 10.0 mi SSW 3.5 mph - 0.00 in   Overcast
8:46 AM 44.6 °F 41.4 °F 41.0 °F 87% 29.96 in 10.0 mi ESE 5.8 mph - 0.01 in   Mostly Cloudy
8:56 AM 45.0 °F 42.6 °F 39.9 °F 82% 29.97 in 10.0 mi SSE 4.6 mph - 0.01 in   Mostly Cloudy
9:07 AM 44.6 °F 40.2 °F 39.2 °F 81% 29.97 in 10.0 mi SE 8.1 mph - 0.00 in Rain Light Rain
11:56 AM 51.1 °F - 39.9 °F 66% 30.01 in 10.0 mi South 11.5 mph 24.2 mph 0.00 in   Overcast
12:56 PM 53.1 °F - 37.9 °F 57% 30.01 in 10.0 mi South 8.1 mph 17.3 mph 0.00 in   Overcast
1:56 PM 52.0 °F - 39.0 °F 61% 30.00 in 10.0 mi South 9.2 mph - 0.01 in   Partly Cloudy
2:56 PM 51.1 °F - 39.9 °F 66% 30.01 in 10.0 mi ESE 6.9 mph - N/A   Mostly Cloudy
3:56 PM 50.0 °F - 37.0 °F 61% 30.01 in 10.0 mi West 5.8 mph - 0.00 in   Mostly Cloudy
4:56 PM 50.0 °F - 36.0 °F 59% 30.00 in 10.0 mi Variable 3.5 mph - N/A   Scattered Clouds
5:56 PM 48.0 °F - 39.0 °F 71% 30.01 in 10.0 mi Calm Calm - N/A   Mostly Cloudy
6:56 PM 44.1 °F 41.5 °F 37.0 °F 76% 30.01 in 10.0 mi North 4.6 mph - N/A   Clear
7:56 PM 42.1 °F 39.2 °F 37.0 °F 82% 30.02 in 10.0 mi WNW 4.6 mph - N/A   Clear
8:56 PM 41.0 °F - 37.0 °F 86% 30.03 in 10.0 mi Calm Calm - N/A   Mostly Cloudy
9:22 PM 39.2 °F - 35.6 °F 87% 30.03 in 10.0 mi Calm Calm - N/A   Scattered Clouds
9:56 PM 39.0 °F - 36.0 °F 89% 30.02 in 10.0 mi Calm Calm - N/A   Clear
10:56 PM 37.9 °F - 36.0 °F 93% 30.02 in 7.0 mi Calm Calm - N/A   Clear
11:56 PM 36.0 °F - 34.0 °F 93% 30.00 in 10.0 mi Calm Calm - N/A   Partly Cloudy